Wind_Speed
42 41 38 36 34 34 33 33 32 30 29 31 20 18 22 22 21 22 22 22 20 20 18 17 17 16 16 16 16 16 16 16 16 15 15 15 15 14 13 13 14 14 15
44 43 41 38 34 36 34 34 34 32 31 33 22 17 23 24 23 22 22 22 20 20 19 18 17 17 17 17 16 16 16 16 15 15 15 15 16 15 16 16 15 15 14
45 46 45 42 38 34 35 35 34 32 30 30 24 17 23 25 25 23 21 22 22 20 19 19 18 18 17 17 16 16 15 15 16 15 15 15 16 15 16 15 16 16 16
47 48 45 43 40 37 37 36 36 34 32 31 26 21 26 27 26 24 22 23 23 22 20 20 19 18 17 17 16 16 16 16 16 16 16 16 16 16 16 15 15 15 15
48 48 44 45 43 41 40 39 38 39 35 31 28 23 26 30 28 26 24 24 24 24 22 20 19 18 18 18 17 17 16 16 16 16 16 16 16 15 15 15 15 15 15
48 48 42 46 44 41 40 39 40 39 38 35 27 25 26 28 28 27 26 24 24 24 23 23 22 19 19 19 18 18 17 17 17 16 16 16 16 15 15 15 15 15 15
45 45 40 45 44 45 44 44 40 40 32 35 28 20 22 26 29 29 28 27 27 27 26 25 25 25 23 22 21 20 19 19 18 17 17 17 17 17 16 15 15 15 15
44 47 43 46 48 41 41 45 39 33 29 40 22 20 3 5 23 30 31 32 31 31 31 29 30 29 27 27 25 23 21 20 20 19 18 17 17 17 17 17 16 14 15
43 44 48 49 47 46 45 45 41 38 31 37 32 15 4 5 8 21 32 34 34 35 34 33 34 32 30 29 28 26 25 24 22 21 20 19 19 19 18 18 17 17 16
47 46 47 49 50 48 44 48 43 40 34 32 28 28 17 16 4 2 23 35 36 39 37 37 37 37 35 34 32 31 30 27 27 24 22 21 21 20 20 18 18 17 16
46 46 43 46 48 50 48 49 45 42 44 38 38 33 27 18 15 5 4 15 30 39 42 41 40 39 40 38 36 35 34 32 31 30 28 25 24 23 21 21 21 20 19
41 47 45 49 48 46 48 51 49 47 43 40 40 37 34 23 17 9 3 17 26 29 40 44 45 44 42 42 40 39 38 38 38 36 33 30 27 24 22 21 20 19 19
35 41 46 46 49 51 49 47 48 47 45 43 43 41 37 37 31 29 19 11 7 14 24 37 44 47 47 45 44 42 41 40 42 40 36 33 29 25 23 21 19 18 17
34 37 42 45 51 52 47 47 46 48 45 46 45 44 42 40 37 34 30 15 2 12 16 18 41 45 48 50 49 46 44 44 44 44 40 37 33 28 25 23 21 18 17
38 42 42 44 47 50 47 44 44 44 43 44 44 43 42 39 38 40 36 33 18 7 12 24 22 48 49 51 53 51 48 47 46 46 44 41 37 34 33 31 29 25 23
34 41 40 44 46 47 51 49 43 42 43 42 40 39 40 36 36 36 37 41 34 24 7 35 35 32 45 47 50 51 51 49 49 50 50 48 46 41 38 36 33 31 28
11 20 30 35 39 44 45 44 44 43 43 42 43 41 41 39 33 33 35 35 36 31 18 23 35 39 36 45 46 48 48 49 50 52 53 51 49 46 42 41 38 34 31
6 6 5 26 35 40 39 41 40 37 40 42 43 41 42 41 40 35 36 38 38 39 34 27 28 34 37 42 47 50 49 47 49 52 55 55 52 52 47 45 41 39 34
9 9 10 9 14 25 30 45 47 42 42 44 45 45 41 41 39 38 36 35 33 37 34 30 23 28 34 32 37 42 42 44 44 48 56 56 56 57 51 46 45 41 36
8 8 6 10 9 6 21 29 35 37 40 43 46 45 46 46 46 43 39 39 38 35 35 32 30 23 25 30 37 34 32 39 41 44 50 59 59 57 52 49 47 44 38
6 8 11 9 8 7 8 8 30 37 38 42 44 43 45 45 46 46 43 40 39 35 32 34 31 20 22 20 35 34 32 29 31 37 44 47 47 51 53 52 51 49 44
3 2 5 8 9 8 9 15 14 13 29 37 32 36 35 34 40 48 51 49 46 41 32 32 31 22 32 33 28 27 27 18 9 34 38 37 44 44 47 52 53 51 47
8 9 8 10 12 11 11 12 14 14 16 26 34 37 36 38 41 44 54 56 56 52 49 37 30 26 27 38 38 27 30 32 26 26 34 21 34 34 38 45 50 51 48
13 11 12 13 14 16 14 14 15 15 17 18 22 30 31 35 42 46 36 39 46 45 50 46 35 41 41 42 45 45 37 23 16 20 33 10 26 25 33 40 47 51 50
12 16 15 16 18 20 16 15 13 14 16 19 19 22 33 37 42 42 40 35 34 38 48 47 45 38 44 40 39 30 28 26 8 14 34 22 22 18 25 30 37 46 48
15 15 17 19 19 22 21 18 12 13 16 17 19 21 26 35 37 38 37 35 29 37 37 38 37 38 37 38 39 42 42 31 16 6 25 19 22 20 7 22 33 38 41
Wind_Direction
185 189 188 186 188 186 185 180 177 177 176 174 170 161 174 172 165 159 157 160 159 158 156 155 151 151 150 147 143 142 141 142 141 140 139 138 136 134 136 136 129 128 128
188 188 190 190 192 192 189 184 180 179 179 177 177 170 177 177 173 166 167 167 168 166 162 161 160 158 155 153 151 149 147 145 147 146 147 144 143 142 137 135 134 134 134
192 190 193 194 194 194 193 188 184 181 182 180 182 175 179 181 176 175 177 176 172 171 172 170 166 164 162 158 155 155 155 156 155 154 151 151 150 148 145 144 143 141 141
200 195 195 195 199 195 195 192 187 183 185 185 184 181 182 184 182 181 182 183 180 178 182 179 176 172 170 167 165 166 165 163 162 162 161 161 157 157 153 153 152 148 148
202 198 195 199 199 199 197 195 191 189 187 189 190 186 185 185 184 184 186 188 187 185 184 184 183 182 178 178 177 176 175 173 171 172 170 167 165 163 162 160 158 156 155
200 199 194 198 198 197 196 196 194 192 191 189 187 182 186 188 187 190 190 191 195 194 190 190 190 194 192 188 187 184 183 182 180 179 177 175 172 170 167 167 166 164 161
194 194 193 195 197 197 196 198 193 190 190 189 170 163 179 190 192 195 195 196 198 199 201 201 198 197 198 198 194 193 192 191 189 188 187 184 181 178 177 175 173 171 169
189 192 194 196 200 192 194 194 187 181 187 189 175 151 132 196 204 201 200 201 203 204 207 208 208 209 206 203 201 201 199 198 196 195 192 190 187 186 183 180 179 183 180
192 193 196 198 198 197 196 194 190 185 183 188 185 169 141 199 151 210 208 206 207 207 210 212 215 216 214 210 206 205 204 205 203 200 198 196 193 192 190 189 188 185 185
196 195 196 198 198 198 196 197 194 190 184 186 185 195 191 151 170 170 210 212 211 212 212 214 217 218 218 217 217 212 205 210 207 208 203 202 200 199 196 194 193 191 192
199 197 198 195 197 199 200 198 195 194 192 188 195 195 198 186 182 145 173 192 213 216 218 219 219 221 221 221 221 220 212 210 211 211 209 204 204 202 201 199 197 195 195
194 197 200 201 198 197 199 200 198 195 198 199 197 198 201 188 188 167 129 188 202 211 215 217 220 223 224 225 226 225 221 214 214 213 212 213 206 205 205 204 201 203 202
200 198 197 198 199 201 201 198 198 199 199 199 200 203 205 208 210 202 189 173 183 199 210 219 220 222 225 227 229 228 226 220 216 215 215 212 213 210 206 206 206 208 209
209 207 204 202 203 204 202 200 199 201 202 204 205 203 207 209 209 204 201 173 164 189 197 207 218 221 224 229 232 230 228 225 220 216 215 214 211 209 207 208 207 208 213
219 213 209 204 204 205 202 200 203 206 206 208 211 210 209 210 208 212 205 205 191 185 215 217 206 221 223 227 232 232 229 226 222 217 216 216 214 211 209 206 207 204 205
214 215 213 208 205 208 209 203 204 207 208 211 214 217 218 215 211 209 207 212 215 213 213 217 218 224 221 222 228 231 232 230 223 218 217 215 214 213 212 210 210 206 204
217 225 222 223 213 207 205 202 204 204 206 212 214 215 217 218 218 210 211 215 217 221 225 230 219 221 223 218 221 227 231 226 226 219 218 217 216 214 216 212 210 210 208
32 42 317 238 223 210 204 201 203 203 206 208 213 216 219 216 215 214 210 214 218 220 224 232 229 217 214 219 223 224 223 225 223 221 217 217 218 220 218 213 212 209 207
27 10 337 312 251 235 208 207 208 204 207 211 212 212 213 215 216 213 212 215 215 222 223 228 223 218 216 212 209 220 216 218 219 223 218 218 222 220 220 217 213 209 204
34 43 1 323 317 281 223 230 213 214 213 215 215 214 215 216 216 215 216 217 217 218 222 224 228 212 205 205 208 200 203 209 209 214 219 219 220 221 220 219 214 208 210
352 12 3 330 325 284 275 269 235 210 219 222 221 218 219 218 221 220 218 219 220 219 216 222 224 206 194 186 197 203 206 197 201 202 210 211 210 215 217 220 215 209 211
323 311 306 328 345 330 310 287 295 278 220 227 226 224 223 221 224 226 224 224 220 217 215 214 219 203 200 203 202 200 193 175 186 204 201 205 207 207 211 214 213 212 208
311 311 324 332 327 327 319 291 282 280 256 241 222 221 219 222 225 244 233 230 229 228 228 220 215 203 199 201 198 195 196 200 206 202 195 190 200 206 206 209 209 210 208
314 313 321 320 314 309 314 313 295 278 273 268 251 230 216 222 229 226 227 234 231 235 232 230 223 217 220 220 213 210 202 187 193 193 187 161 189 194 202 205 206 209 206
300 304 316 316 313 309 310 308 302 287 272 261 264 251 238 224 231 231 230 225 231 234 242 237 230 234 232 225 218 194 180 167 165 174 185 187 179 184 188 198 203 209 207
271 278 299 308 307 306 309 304 291 275 268 255 249 250 245 242 243 237 226 220 215 225 236 230 223 220 217 216 218 214 197 183 166 141 186 166 159 171 163 195 191 198 205
Height
790 796 801 804 809 813 817 820 825 831 835 840 842 845 849 852 855 857 859 863 864 866 868 870 871 873 874 876 877 878 879 880 882 883 884 885 886 887 888 890 891 892 893
785 790 796 801 808 809 815 819 822 828 833 838 841 845 848 851 854 857 859 863 865 867 868 870 872 873 875 877 878 879 880 881 883 884 885 886 887 888 889 890 891 893 894
779 784 789 795 803 808 814 818 823 828 833 837 840 843 847 850 854 856 859 861 864 867 869 871 872 874 875 877 879 880 881 882 883 885 885 886 887 888 890 891 892 893 895
774 779 784 792 798 804 811 817 820 825 830 834 838 840 844 849 852 855 858 861 863 866 868 870 872 874 876 878 879 880 880 882 883 884 885 886 887 889 891 893 894 894 896
769 774 780 785 792 799 805 811 818 822 827 832 837 840 843 846 850 854 857 860 863 865 867 870 872 873 875 877 878 879 881 882 883 885 887 888 889 891 892 894 896 897 897
762 769 775 780 787 794 801 807 812 819 822 828 835 840 844 847 849 852 855 858 861 864 866 869 870 873 874 875 877 879 881 882 884 886 887 889 891 892 894 896 897 898 899
757 764 770 774 782 786 792 801 807 814 821 826 832 840 845 847 848 850 852 855 857 860 863 865 867 869 871 873 876 878 880 881 883 885 886 888 890 892 894 896 898 899 901
750 758 764 769 774 782 789 793 798 807 815 820 824 832 846 850 848 848 849 850 853 856 859 861 863 864 867 869 872 875 878 880 882 884 887 889 891 893 894 896 898 901 902
747 750 755 762 771 776 779 786 793 798 806 814 817 819 836 836 841 846 846 846 849 851 854 857 859 862 864 867 871 873 876 878 880 882 885 887 888 890 892 895 897 898 902
738 746 749 755 761 768 773 778 787 793 799 805 813 814 815 816 829 841 842 843 844 845 847 850 853 856 859 862 865 867 871 875 877 880 882 884 886 889 892 894 897 899 902
733 740 745 750 754 759 765 771 779 786 790 795 799 806 810 813 815 820 831 836 841 840 841 843 846 849 852 856 859 861 866 869 872 874 876 880 883 886 889 891 893 895 898
725 731 736 743 747 752 757 762 769 777 782 787 792 795 798 802 806 811 818 826 827 830 833 836 839 841 844 847 850 854 858 862 864 868 871 876 880 883 887 891 893 896 898
719 723 727 732 739 743 748 756 762 767 771 776 780 784 789 792 797 802 805 813 818 824 828 829 831 833 836 839 842 846 850 853 858 862 868 873 879 884 887 890 893 896 899
714 718 722 723 728 735 742 747 752 757 763 767 770 772 776 781 787 790 794 801 811 814 817 815 820 823 826 829 832 837 842 846 851 858 864 868 874 879 884 888 890 892 896
705 710 715 717 720 725 732 737 744 750 756 759 764 766 768 771 777 781 786 790 795 806 806 806 808 809 814 819 822 828 833 838 845 852 858 864 868 873 875 875 881 885 889
694 699 708 710 713 717 722 728 736 742 748 753 759 764 768 769 770 772 777 781 786 789 794 795 794 797 803 809 813 817 822 828 835 842 845 850 855 859 867 871 878 878 880
697 698 699 705 706 709 713 720 724 731 738 747 752 755 759 765 768 769 772 775 780 784 786 787 790 791 794 798 803 808 813 819 823 830 836 838 847 851 858 864 869 873 876
694 694 699 698 700 702 705 710 718 724 729 734 741 747 750 755 758 762 764 766 769 773 778 780 783 786 787 789 795 800 805 810 812 821 827 832 839 841 847 854 862 866 870
695 695 698 700 694 679 692 695 704 710 717 724 728 733 739 746 749 751 755 758 761 766 769 773 775 778 783 786 790 795 799 803 806 810 818 825 824 831 839 847 855 861 865
695 694 702 698 694 692 693 695 696 704 709 712 715 718 724 730 736 741 744 748 752 755 760 763 766 770 774 778 781 786 789 791 796 801 806 813 820 825 832 840 847 852 858
694 691 691 697 697 695 693 693 697 695 702 705 707 709 713 717 725 729 733 737 741 745 748 753 757 761 765 769 770 770 776 778 787 793 801 807 814 819 823 831 837 842 849
693 694 698 698 690 690 688 692 691 685 690 694 704 701 702 700 709 718 721 725 728 731 736 741 747 751 751 754 763 766 765 776 781 784 789 797 803 807 814 820 826 833 840
692 691 689 686 687 687 688 689 689 690 691 692 692 700 701 699 702 709 707 712 717 721 724 728 731 732 738 738 747 758 764 764 769 774 786 791 797 802 806 812 818 824 833
687 687 686 688 685 685 684 685 684 680 683 685 688 686 685 692 695 692 693 705 707 712 715 721 725 729 726 731 736 741 754 763 767 773 782 786 791 796 801 806 812 818 825
680 684 682 684 682 683 683 682 680 680 677 677 679 679 686 683 688 691 697 691 696 700 708 714 714 719 727 728 735 743 752 757 768 770 774 778 786 796 800 805 810 815 819
676 678 676 678 678 676 675 678 679 679 680 678 676 677 677 679 680 684 685 685 690 692 698 705 710 714 720 721 728 734 740 750 757 768 769 774 781 790 802 804 807 813 818